| time (UTC) | temp F | wind direction | speed knots | gust knots | rain 1hr in | rain 24hr in | rain mn in | humidity % | barometer mb |
| 20260509024511 | 66 | 80 | 9.6 | 17.4 | 0.00 | 0.00 | 0.00 | 46 | 1027.0 |
| 20260509023019 | 66 | 13 | 7.8 | 14.8 | 0.00 | 0.00 | 0.00 | 47 | 1027.0 |
| 20260509021527 | 65 | 101 | 12.2 | 17.4 | 0.00 | 0.00 | 0.00 | 47 | 1027.0 |
| 20260509014528 | 64 | 61 | 7.8 | 18.2 | 0.00 | 0.00 | 0.00 | 50 | 1027.3 |
| 20260509013026 | 63 | 90 | 13.0 | 18.2 | 0.00 | 0.00 | 0.00 | 51 | 1027.3 |
| 20260509011519 | 62 | 108 | 7.8 | 17.4 | 0.00 | 0.00 | 0.00 | 52 | 1027.5 |
| 20260509010033 | 62 | 86 | 11.3 | 17.4 | 0.00 | 0.00 | 0.00 | 53 | 1027.4 |
| 20260509004520 | 61 | 57 | 8.7 | 15.6 | 0.00 | 0.00 | 0.00 | 55 | 1027.6 |
| 20260509001529 | 59 | 65 | 9.6 | 14.8 | 0.00 | 0.00 | 0.00 | 56 | 1027.3 |
| 20260509000016 | 59 | 82 | 8.7 | 13.9 | 0.00 | 0.00 | 0.00 | 57 | 1027.3 |
| 20260508234522 | 58 | 65 | 7.0 | 13.0 | 0.00 | 0.00 | 0.00 | 58 | 1027.1 |
| 20260508233029 | 58 | 56 | 7.0 | 13.9 | 0.00 | 0.00 | 0.00 | 58 | 1027.0 |
| 20260508231520 | 57 | 63 | 6.1 | 10.4 | 0.00 | 0.00 | 0.00 | 59 | 1027.0 |
| 20260508230027 | 57 | 49 | 5.2 | 11.3 | 0.00 | 0.00 | 0.00 | 59 | 1027.0 |
| 20260508224525 | 57 | 86 | 7.8 | 13.9 | 0.00 | 0.00 | 0.00 | 58 | 1026.8 |
| 20260508223004 | 58 | 91 | 6.1 | 13.0 | 0.00 | 0.00 | 0.00 | 58 | 1026.7 |
| 20260508221512 | 58 | 98 | 7.0 | 13.9 | 0.00 | 0.00 | 0.00 | 57 | 1026.7 |
| 20260508220017 | 58 | 87 | 7.8 | 13.9 | 0.00 | 0.00 | 0.00 | 58 | 1026.6 |
| 20260508213014 | 57 | 74 | 6.1 | 9.6 | 0.00 | 0.00 | 0.00 | 58 | 1026.6 |
| 20260508211519 | 57 | 98 | 3.5 | 7.8 | 0.00 | 0.00 | 0.00 | 58 | 1026.4 |
| 20260508210015 | 57 | 93 | 3.5 | 7.8 | 0.00 | 0.00 | 0.00 | 58 | 1026.4 |
| 20260508204517 | 57 | 103 | 2.6 | 7.0 | 0.00 | 0.00 | 0.00 | 58 | 1026.4 |
| 20260508203019 | 58 | 83 | 4.3 | 7.0 | 0.00 | 0.00 | 0.00 | 57 | 1026.3 |
| 20260508201513 | 58 | 91 | 5.2 | 7.8 | 0.00 | 0.00 | 0.00 | 56 | 1026.3 |
| 20260508200023 | 58 | 94 | 2.6 | 8.7 | 0.00 | 0.00 | 0.00 | 56 | 1026.3 |
| 20260508194507 | 58 | 77 | 4.3 | 8.7 | 0.00 | 0.00 | 0.00 | 56 | 1026.0 |
| 20260508193016 | 59 | 89 | 5.2 | 10.4 | 0.00 | 0.00 | 0.00 | 55 | 1026.0 |
| 20260508191520 | 59 | 89 | 4.3 | 9.6 | 0.00 | 0.00 | 0.00 | 54 | 1025.9 |
| 20260508190010 | 59 | 60 | 4.3 | 9.6 | 0.00 | 0.00 | 0.00 | 54 | 1025.8 |
| 20260508184522 | 60 | 67 | 6.1 | 13.9 | 0.00 | 0.00 | 0.00 | 53 | 1025.8 |
| 20260508183022 | 61 | 111 | 7.0 | 13.0 | 0.00 | 0.00 | 0.00 | 52 | 1025.9 |
| 20260508181516 | 61 | 107 | 8.7 | 13.9 | 0.00 | 0.00 | 0.00 | 51 | 1025.9 |
| 20260508180019 | 61 | 87 | 8.7 | 16.5 | 0.00 | 0.00 | 0.00 | 51 | 1025.9 |
| 20260508174513 | 61 | 95 | 6.1 | 14.8 | 0.00 | 0.00 | 0.00 | 51 | 1025.9 |
| 20260508173017 | 61 | 96 | 6.1 | 11.3 | 0.00 | 0.00 | 0.00 | 51 | 1025.9 |
| 20260508171524 | 61 | 83 | 7.8 | 12.2 | 0.00 | 0.00 | 0.00 | 51 | 1025.9 |
| 20260508170011 | 62 | 86 | 6.1 | 12.2 | 0.00 | 0.00 | 0.00 | 50 | 1026.0 |
| 20260508164519 | 62 | 78 | 5.2 | 13.9 | 0.00 | 0.00 | 0.00 | 49 | 1026.0 |
| 20260508163013 | 62 | 68 | 7.0 | 12.2 | 0.00 | 0.00 | 0.00 | 48 | 1026.0 |
| 20260508161528 | 63 | 95 | 5.2 | 12.2 | 0.00 | 0.00 | 0.00 | 47 | 1025.9 |
| 20260508160003 | 63 | 63 | 8.7 | 14.8 | 0.00 | 0.00 | 0.00 | 46 | 1025.6 |
| 20260508153032 | 64 | 94 | 8.7 | 14.8 | 0.00 | 0.00 | 0.00 | 45 | 1025.5 |
| 20260508150013 | 64 | 78 | 5.2 | 13.0 | 0.00 | 0.00 | 0.00 | 45 | 1025.9 |
| 20260508144503 | 64 | 128 | 6.1 | 13.0 | 0.00 | 0.00 | 0.00 | 45 | 1026.1 |
| 20260508143008 | 64 | 98 | 6.1 | 14.8 | 0.00 | 0.00 | 0.00 | 46 | 1026.3 |
| 20260508141516 | 64 | 84 | 8.7 | 13.9 | 0.00 | 0.00 | 0.00 | 47 | 1026.2 |
| 20260508140006 | 64 | 117 | 7.8 | 12.2 | 0.00 | 0.00 | 0.00 | 50 | 1026.2 |
| 20260508134512 | 64 | 82 | 7.0 | 11.3 | 0.00 | 0.00 | 0.00 | 51 | 1026.2 |
| 20260508133021 | 64 | 101 | 6.1 | 10.4 | 0.00 | 0.00 | 0.00 | 51 | 1026.2 |
| 20260508131508 | 64 | 115 | 6.1 | 8.7 | 0.00 | 0.00 | 0.00 | 51 | 1026.2 |
| 20260508130015 | 64 | 97 | 6.1 | 8.7 | 0.00 | 0.00 | 0.00 | 51 | 1026.1 |
| 20260508124504 | 64 | 126 | 6.1 | 8.7 | 0.00 | 0.00 | 0.00 | 51 | 1026.1 |
| 20260508123020 | 65 | 115 | 5.2 | 9.6 | 0.00 | 0.00 | 0.00 | 50 | 1026.0 |
| 20260508121520 | 65 | 122 | 5.2 | 8.7 | 0.00 | 0.00 | 0.00 | 50 | 1026.0 |
| 20260508120008 | 65 | 112 | 5.2 | 9.6 | 0.00 | 0.00 | 0.00 | 50 | 1026.0 |
| 20260508114514 | 65 | 97 | 3.5 | 7.0 | 0.00 | 0.00 | 0.00 | 50 | 1026.0 |
| 20260508113022 | 66 | 135 | 5.2 | 8.7 | 0.00 | 0.00 | 0.00 | 49 | 1025.9 |
| 20260508111515 | 66 | 123 | 5.2 | 7.8 | 0.00 | 0.00 | 0.00 | 49 | 1026.0 |
| 20260508110029 | 67 | 92 | 5.2 | 8.7 | 0.00 | 0.00 | 0.00 | 48 | 1025.9 |
| 20260508104524 | 67 | 115 | 5.2 | 8.7 | 0.00 | 0.00 | 0.00 | 48 | 1026.0 |
| 20260508103034 | 67 | 91 | 5.2 | 7.8 | 0.00 | 0.00 | 0.00 | 48 | 1025.9 |
| 20260508100009 | 68 | 105 | 5.2 | 8.7 | 0.00 | 0.00 | 0.00 | 46 | 1025.7 |
| 20260508094518 | 69 | 95 | 6.1 | 9.6 | 0.00 | 0.00 | 0.00 | 45 | 1025.7 |
| 20260508093034 | 70 | 140 | 6.1 | 12.2 | 0.00 | 0.00 | 0.00 | 44 | 1025.6 |
| 20260508091514 | 70 | 93 | 7.0 | 14.8 | 0.00 | 0.00 | 0.00 | 43 | 1025.4 |
| 20260508090024 | 71 | 105 | 8.7 | 15.6 | 0.00 | 0.00 | 0.00 | 42 | 1025.3 |
| 20260508084525 | 71 | 111 | 9.6 | 14.8 | 0.00 | 0.00 | 0.00 | 43 | 1025.3 |
| 20260508083013 | 72 | 134 | 11.3 | 17.4 | 0.00 | 0.00 | 0.00 | 42 | 1025.1 |
| 20260508081523 | 72 | 89 | 9.6 | 16.5 | 0.00 | 0.00 | 0.00 | 42 | 1025.2 |
| 20260508080010 | 72 | 128 | 7.0 | 12.2 | 0.00 | 0.00 | 0.00 | 43 | 1025.1 |
| 20260508074518 | 73 | 103 | 5.2 | 13.9 | 0.00 | 0.00 | 0.00 | 43 | 1025.1 |
| 20260508073024 | 73 | 105 | 9.6 | 16.5 | 0.00 | 0.00 | 0.00 | 43 | 1025.1 |
| 20260508071514 | 73 | 90 | 8.7 | 16.5 | 0.00 | 0.00 | 0.00 | 43 | 1025.2 |
| 20260508070023 | 73 | 101 | 10.4 | 13.9 | 0.00 | 0.00 | 0.00 | 42 | 1025.1 |
| 20260508064510 | 73 | 97 | 5.2 | 15.6 | 0.00 | 0.00 | 0.00 | 43 | 1025.3 |
| 20260508063021 | 73 | 111 | 7.8 | 14.8 | 0.00 | 0.00 | 0.00 | 43 | 1025.5 |
| 20260508061523 | 72 | 90 | 10.4 | 17.4 | 0.00 | 0.00 | 0.00 | 46 | 1025.6 |
| 20260508054602 | 72 | 107 | 5.2 | 13.9 | 0.00 | 0.00 | 0.00 | 47 | 1026.1 |
| 20260508053012 | 72 | 37 | 6.1 | 14.8 | 0.00 | 0.00 | 0.00 | 46 | 1026.2 |
| 20260508050024 | 72 | 88 | 7.8 | 13.0 | 0.00 | 0.00 | 0.00 | 48 | 1026.6 |
| 20260508044511 | 71 | 110 | 8.7 | 16.5 | 0.00 | 0.00 | 0.00 | 48 | 1026.7 |
| 20260508041528 | 71 | 86 | 7.8 | 13.0 | 0.00 | 0.00 | 0.00 | 50 | 1027.1 |
| 20260508040014 | 70 | 55 | 7.0 | 13.0 | 0.00 | 0.00 | 0.00 | 50 | 1027.6 |
| 20260508034533 | 70 | 89 | 7.0 | 14.8 | 0.00 | 0.00 | 0.00 | 51 | 1028.0 |
| 20260508033013 | 69 | 88 | 9.6 | 15.6 | 0.00 | 0.00 | 0.00 | 51 | 1028.4 |
| 20260508031519 | 69 | 90 | 7.8 | 17.4 | 0.00 | 0.00 | 0.00 | 50 | 1028.5 |
| 20260508030026 | 68 | 87 | 9.6 | 18.2 | 0.00 | 0.00 | 0.00 | 52 | 1028.6 |